Hourly Data Report for June 08, 2021

VINELAND STATION RCS
ONTARIO
Current Station Operator: ECCC - MSC

43°11'00.000" N
79°24'00.000" W
79.20 m
6139148
71171
XVN

Download Data

Hourly Data (June 2021)
Hourly Data Report for June 8, 2021
TIME
LST
Temp Definition
°C
Dew Point Definition
°C
Rel Hum Definition
%
Precip. Amount Definition
mm

Wind Dir Definition
10's deg

Wind Spd Definition
km/h
Visibility Definition
km
Stn Press Definition
kPa
Hmdx Definition


Wind Chill Definition


Weather Definition


00:00 21.7 18.1 80 0.0 20 8   100.62 28   LegendNANA
01:00 21.0 18.6 86 0.0 20 12   100.66 27   LegendNANA
02:00 21.4 19.3 88 0.2 20 13   100.67 28   LegendNANA
03:00 20.9 19.6 93 1.2 19 7   100.66 28   LegendNANA
04:00 20.9 19.9 94 2.8 18 8   100.65 28   LegendNANA
05:00 21.0 20.2 95 3.7 21 5   100.68 29   LegendNANA
06:00 21.2 20.4 95 0.6 25 4   100.73 29   LegendNANA
07:00 20.5 19.9 96 0.0 12 4   100.75 28   LegendNANA
08:00 22.9 21.3 91 0.0 21 10   100.75 32   LegendNANA
09:00 23.3 21.4 89 0.0 20 12   100.78 32   LegendNANA
10:00 24.4 21.4 83 0.0 21 13   100.77 33   LegendNANA
11:00 24.7 20.9 80 0.0 21 15   100.78 33   LegendNANA
12:00 23.6 20.0 80 0.0 31 9   100.73 31   LegendNANA
13:00 23.5 21.9 90 3.0 1 3   100.67 33   LegendNANA
14:00 27.2 22.6 76 1.1 1 5   100.61 37   LegendNANA
15:00 22.9 20.6 87 0.0 7 7   100.58 31   LegendNANA
16:00 22.2 19.4 84 0.0 6 12   100.54 29   LegendNANA
17:00 21.8 20.8 94 3.1 28 11   100.60 30   LegendNANA
18:00 20.9 20.0 95 0.0 32 6   100.62 28   LegendNANA
19:00 21.9 20.9 94 0.0 28 3   100.59 30   LegendNANA
20:00 21.9 21.1 95 0.0 17 4   100.55 30   LegendNANA
21:00 21.8 20.9 95 0.0 18 6   100.61 30   LegendNANA
22:00 21.4 20.1 93 0.0 21 5   100.63 29   LegendNANA
23:00 21.5 20.5 94 0.0 22 5   100.66 29   LegendNANA

Notes on Data Quality.

Legend

  • E = Estimated
  • M = Missing
  • NA = Not Available*
  • [empty] = Indicates an unobserved value
Date modified: